Time,TemperatureF,DewpointF,PressureIn,WindDirection,WindDirectionDegrees,WindSpeedMPH,WindSpeedGustMPH,Humidity,HourlyPrecipIn,Conditions,Clouds,dailyrainin,SoftwareType,DateUTC
2013-09-14 00:00:00,58.6,54.7,29.80,SSE,161,0.0,0.0,87,0.00,,,0.00,Wunderground v.1.15,2013-09-14 07:00:00,
2013-09-14 00:10:00,58.4,54.5,29.80,SSE,161,0.0,0.0,87,0.00,,,0.00,Wunderground v.1.15,2013-09-14 07:10:00,
2013-09-14 00:20:00,58.0,54.2,29.80,SSE,161,0.0,0.0,87,0.00,,,0.00,Wunderground v.1.15,2013-09-14 07:20:00,
2013-09-14 00:30:00,57.8,54.3,29.81,South,169,0.0,0.0,88,0.00,,,0.00,Wunderground v.1.15,2013-09-14 07:30:00,
2013-09-14 00:35:00,57.7,54.2,29.81,South,169,0.0,0.0,88,0.00,,,0.00,Wunderground v.1.15,2013-09-14 07:35:00,
2013-09-14 00:45:00,57.3,53.8,29.81,SSE,168,0.0,0.0,88,0.00,,,0.00,Wunderground v.1.15,2013-09-14 07:45:00,
2013-09-14 00:50:00,57.0,53.5,29.81,South,169,0.0,0.0,88,0.00,,,0.00,Wunderground v.1.15,2013-09-14 07:50:00,
2013-09-14 01:00:00,56.7,53.2,29.81,South,169,0.0,0.0,88,0.00,,,0.00,Wunderground v.1.15,2013-09-14 08:00:00,
2013-09-14 01:10:00,56.4,52.9,29.80,South,169,0.0,0.0,88,0.00,,,0.00,Wunderground v.1.15,2013-09-14 08:10:00,
2013-09-14 01:15:00,56.2,53.0,29.80,South,169,0.0,0.0,89,0.00,,,0.00,Wunderground v.1.15,2013-09-14 08:15:00,
2013-09-14 01:25:00,55.8,52.6,29.80,South,169,0.0,0.0,89,0.00,,,0.00,Wunderground v.1.15,2013-09-14 08:25:00,
2013-09-14 01:35:00,55.6,52.4,29.81,South,169,0.0,0.0,89,0.00,,,0.00,Wunderground v.1.15,2013-09-14 08:35:00,
2013-09-14 01:40:00,55.5,52.6,29.80,South,169,0.0,0.0,90,0.00,,,0.00,Wunderground v.1.15,2013-09-14 08:40:00,
2013-09-14 01:45:00,55.5,52.6,29.81,South,169,0.0,0.0,90,0.00,,,0.00,Wunderground v.1.15,2013-09-14 08:45:00,
2013-09-14 01:55:00,55.2,52.3,29.80,South,169,0.0,0.0,90,0.00,,,0.00,Wunderground v.1.15,2013-09-14 08:55:00,
2013-09-14 02:00:00,55.0,52.1,29.80,South,169,0.0,0.0,90,0.00,,,0.00,Wunderground v.1.15,2013-09-14 09:00:00,
2013-09-14 02:10:00,54.8,51.9,29.80,South,169,0.0,0.0,90,0.00,,,0.00,Wunderground v.1.15,2013-09-14 09:10:00,
2013-09-14 02:20:00,54.8,51.9,29.80,South,169,0.0,0.0,90,0.00,,,0.00,Wunderground v.1.15,2013-09-14 09:20:00,
2013-09-14 02:30:00,54.7,51.8,29.80,South,169,0.0,0.0,90,0.00,,,0.00,Wunderground v.1.15,2013-09-14 09:30:00,
2013-09-14 02:35:00,54.7,52.1,29.80,South,169,0.0,0.0,91,0.00,,,0.00,Wunderground v.1.15,2013-09-14 09:35:00,
2013-09-14 02:40:00,54.7,52.1,29.80,South,169,0.0,0.0,91,0.00,,,0.00,Wunderground v.1.15,2013-09-14 09:40:00,
2013-09-14 02:50:00,54.7,52.1,29.80,South,169,0.0,0.0,91,0.00,,,0.00,Wunderground v.1.15,2013-09-14 09:50:00,
2013-09-14 02:55:00,54.8,52.2,29.80,South,169,0.0,0.0,91,0.00,,,0.00,Wunderground v.1.15,2013-09-14 09:55:00,
2013-09-14 03:00:00,54.9,52.3,29.80,South,169,0.0,0.0,91,0.00,,,0.00,Wunderground v.1.15,2013-09-14 10:00:00,
2013-09-14 03:10:00,55.0,52.4,29.80,South,169,0.0,0.0,91,0.00,,,0.00,Wunderground v.1.15,2013-09-14 10:10:00,
2013-09-14 03:20:00,55.1,52.5,29.80,South,169,0.0,0.0,91,0.00,,,0.00,Wunderground v.1.15,2013-09-14 10:20:00,
2013-09-14 03:30:00,55.1,52.2,29.80,South,169,0.0,0.0,90,0.00,,,0.00,Wunderground v.1.15,2013-09-14 10:30:00,
2013-09-14 03:35:00,55.1,52.2,29.80,South,169,0.0,0.0,90,0.00,,,0.00,Wunderground v.1.15,2013-09-14 10:35:00,
2013-09-14 03:45:00,55.3,52.4,29.80,South,169,0.0,0.0,90,0.00,,,0.00,Wunderground v.1.15,2013-09-14 10:45:00,
2013-09-14 03:50:00,55.4,52.5,29.80,SSE,168,0.0,0.0,90,0.00,,,0.00,Wunderground v.1.15,2013-09-14 10:50:00,
2013-09-14 04:00:00,55.6,52.7,29.79,South,169,0.0,0.0,90,0.00,,,0.00,Wunderground v.1.15,2013-09-14 11:00:00,
2013-09-14 04:10:00,55.7,52.8,29.80,South,169,0.0,0.0,90,0.00,,,0.00,Wunderground v.1.15,2013-09-14 11:10:00,
2013-09-14 04:20:00,55.9,52.7,29.80,South,169,0.0,0.0,89,0.00,,,0.00,Wunderground v.1.15,2013-09-14 11:20:00,
2013-09-14 04:30:00,56.0,52.8,29.80,South,169,0.0,0.0,89,0.00,,,0.00,Wunderground v.1.15,2013-09-14 11:30:00,
2013-09-14 04:40:00,56.3,53.1,29.80,South,169,0.0,0.0,89,0.00,,,0.00,Wunderground v.1.15,2013-09-14 11:40:00,
2013-09-14 04:45:00,56.4,52.9,29.80,South,169,0.0,0.0,88,0.00,,,0.00,Wunderground v.1.15,2013-09-14 11:45:00,
2013-09-14 04:55:00,56.6,53.1,29.80,South,169,0.0,0.0,88,0.00,,,0.00,Wunderground v.1.15,2013-09-14 11:55:00,
2013-09-14 05:00:00,56.8,53.3,29.80,South,169,0.0,0.0,88,0.00,,,0.00,Wunderground v.1.15,2013-09-14 12:00:00,
2013-09-14 05:10:00,57.0,53.5,29.80,South,169,0.0,0.0,88,0.00,,,0.00,Wunderground v.1.15,2013-09-14 12:10:00,
2013-09-14 05:20:00,57.1,53.3,29.80,South,169,0.0,0.0,87,0.00,,,0.00,Wunderground v.1.15,2013-09-14 12:20:00,
2013-09-14 05:25:00,57.2,53.4,29.80,South,169,0.0,0.0,87,0.00,,,0.00,Wunderground v.1.15,2013-09-14 12:25:00,
2013-09-14 05:35:00,57.3,53.1,29.80,South,169,0.0,0.0,86,0.00,,,0.00,Wunderground v.1.15,2013-09-14 12:35:00,
2013-09-14 05:40:00,57.3,53.5,29.80,South,169,0.0,0.0,87,0.00,,,0.00,Wunderground v.1.15,2013-09-14 12:40:00,
2013-09-14 05:50:00,57.5,53.7,29.81,South,169,0.0,0.0,87,0.00,,,0.00,Wunderground v.1.15,2013-09-14 12:50:00,
2013-09-14 05:55:00,57.6,53.4,29.81,South,169,0.0,0.0,86,0.00,,,0.00,Wunderground v.1.15,2013-09-14 12:55:00,
2013-09-14 06:00:00,57.6,53.4,29.81,South,169,0.0,0.0,86,0.00,,,0.00,Wunderground v.1.15,2013-09-14 13:00:00,
2013-09-14 06:05:00,57.6,53.4,29.81,South,169,0.0,0.0,86,0.00,,,0.00,Wunderground v.1.15,2013-09-14 13:05:00,
2013-09-14 06:10:00,57.6,53.8,29.81,South,169,0.0,0.0,87,0.00,,,0.00,Wunderground v.1.15,2013-09-14 13:10:00,
2013-09-14 06:15:00,57.7,53.9,29.81,South,169,0.0,0.0,87,0.00,,,0.00,Wunderground v.1.15,2013-09-14 13:15:00,
2013-09-14 06:20:00,57.7,53.9,29.81,South,169,0.0,0.0,87,0.00,,,0.00,Wunderground v.1.15,2013-09-14 13:20:00,
2013-09-14 06:25:00,57.7,53.9,29.81,South,169,0.0,0.0,87,0.00,,,0.00,Wunderground v.1.15,2013-09-14 13:25:00,
2013-09-14 06:35:00,57.7,53.5,29.81,South,169,0.0,0.0,86,0.00,,,0.00,Wunderground v.1.15,2013-09-14 13:35:00,
2013-09-14 06:40:00,57.7,53.5,29.81,South,169,0.0,0.0,86,0.00,,,0.00,Wunderground v.1.15,2013-09-14 13:40:00,
2013-09-14 06:45:00,57.7,53.5,29.81,South,169,0.0,0.0,86,0.00,,,0.00,Wunderground v.1.15,2013-09-14 13:45:00,
2013-09-14 06:55:00,57.7,53.5,29.82,South,169,0.0,0.0,86,0.00,,,0.00,Wunderground v.1.15,2013-09-14 13:55:00,
2013-09-14 07:00:00,57.7,53.5,29.82,South,169,0.0,0.0,86,0.00,,,0.00,Wunderground v.1.15,2013-09-14 14:00:00,
2013-09-14 07:10:00,57.6,53.4,29.82,South,169,0.0,0.0,86,0.00,,,0.00,Wunderground v.1.15,2013-09-14 14:10:00,
2013-09-14 07:20:00,57.4,53.2,29.82,South,169,0.0,0.0,86,0.00,,,0.00,Wunderground v.1.15,2013-09-14 14:20:00,
2013-09-14 07:30:00,57.1,53.0,29.82,South,169,0.0,0.0,86,0.00,,,0.00,Wunderground v.1.15,2013-09-14 14:30:00,
2013-09-14 07:35:00,57.0,52.9,29.83,South,169,0.0,0.0,86,0.00,,,0.00,Wunderground v.1.15,2013-09-14 14:35:00,
2013-09-14 07:40:00,56.9,53.1,29.82,South,169,0.0,0.0,87,0.00,,,0.00,Wunderground v.1.15,2013-09-14 14:40:00,
2013-09-14 07:50:00,56.9,53.1,29.82,South,169,0.0,0.0,87,0.00,,,0.00,Wunderground v.1.15,2013-09-14 14:50:00,
2013-09-14 07:55:00,57.1,53.3,29.83,South,169,0.0,0.0,87,0.00,,,0.00,Wunderground v.1.15,2013-09-14 14:55:00,
2013-09-14 08:00:00,57.4,53.6,29.83,South,169,0.0,0.0,87,0.00,,,0.00,Wunderground v.1.15,2013-09-14 15:00:00,
2013-09-14 08:05:00,57.8,53.6,29.83,WSW,253,0.0,1.0,86,0.00,,,0.00,Wunderground v.1.15,2013-09-14 15:05:00,
2013-09-14 08:15:00,58.5,54.0,29.83,WSW,253,0.0,0.0,85,0.00,,,0.00,Wunderground v.1.15,2013-09-14 15:15:00,
2013-09-14 08:25:00,59.1,54.3,29.83,WSW,253,0.0,0.0,84,0.00,,,0.00,Wunderground v.1.15,2013-09-14 15:25:00,
2013-09-14 08:30:00,59.3,54.5,29.83,WSW,253,0.0,0.0,84,0.00,,,0.00,Wunderground v.1.15,2013-09-14 15:30:00,
2013-09-14 08:40:00,59.8,54.6,29.83,West,267,0.0,0.0,83,0.00,,,0.00,Wunderground v.1.15,2013-09-14 15:40:00,
2013-09-14 08:45:00,60.2,54.7,29.83,ENE,67,0.0,0.0,82,0.00,,,0.00,Wunderground v.1.15,2013-09-14 15:45:00,
2013-09-14 08:55:00,60.7,55.2,29.83,SSW,196,0.0,0.0,82,0.00,,,0.00,Wunderground v.1.15,2013-09-14 15:55:00,
2013-09-14 09:00:00,61.0,55.5,29.83,ENE,67,0.0,0.0,82,0.00,,,0.00,Wunderground v.1.15,2013-09-14 16:00:00,
2013-09-14 09:10:00,61.4,55.5,29.83,ENE,69,0.0,1.0,81,0.00,,,0.00,Wunderground v.1.15,2013-09-14 16:10:00,
2013-09-14 09:20:00,61.8,55.2,29.83,SSE,150,0.0,0.0,79,0.00,,,0.00,Wunderground v.1.15,2013-09-14 16:20:00,
2013-09-14 09:30:00,62.4,55.8,29.83,WNW,296,0.0,0.0,79,0.00,,,0.00,Wunderground v.1.15,2013-09-14 16:30:00,
2013-09-14 09:40:00,63.0,55.7,29.83,East,96,0.0,0.0,77,0.00,,,0.00,Wunderground v.1.15,2013-09-14 16:40:00,
2013-09-14 09:50:00,64.0,56.3,29.83,North,355,0.0,0.0,76,0.00,,,0.00,Wunderground v.1.15,2013-09-14 16:50:00,
2013-09-14 09:55:00,64.5,56.4,29.83,ESE,113,0.0,0.0,75,0.00,,,0.00,Wunderground v.1.15,2013-09-14 16:55:00,
2013-09-14 10:00:00,65.3,56.4,29.83,East,86,0.0,0.0,73,0.00,,,0.00,Wunderground v.1.15,2013-09-14 17:00:00,
2013-09-14 10:10:00,66.8,57.1,29.84,East,86,0.0,0.0,71,0.00,,,0.00,Wunderground v.1.15,2013-09-14 17:10:00,
2013-09-14 10:20:00,68.1,57.5,29.84,East,88,1.0,2.0,69,0.00,,,0.00,Wunderground v.1.15,2013-09-14 17:20:00,
2013-09-14 10:30:00,69.4,57.5,29.84,West,271,0.0,0.0,66,0.00,,,0.00,Wunderground v.1.15,2013-09-14 17:30:00,
2013-09-14 10:40:00,70.6,57.4,29.84,NNW,331,0.0,0.0,63,0.00,,,0.00,Wunderground v.1.15,2013-09-14 17:40:00,
2013-09-14 10:45:00,70.7,57.9,29.83,NE,52,0.0,0.0,64,0.00,,,0.00,Wunderground v.1.15,2013-09-14 17:45:00,
2013-09-14 10:55:00,71.1,57.9,29.83,NNW,348,1.0,1.0,63,0.00,,,0.00,Wunderground v.1.15,2013-09-14 17:55:00,
2013-09-14 11:00:00,72.0,57.8,29.83,NNW,348,0.0,0.0,61,0.00,,,0.00,Wunderground v.1.15,2013-09-14 18:00:00,
2013-09-14 11:10:00,71.9,57.7,29.83,NW,306,0.0,1.0,61,0.00,,,0.00,Wunderground v.1.15,2013-09-14 18:10:00,
2013-09-14 11:15:00,72.3,58.5,29.83,NW,323,1.0,1.0,62,0.00,,,0.00,Wunderground v.1.15,2013-09-14 18:15:00,
2013-09-14 11:25:00,72.9,59.1,29.83,North,5,2.0,2.0,62,0.00,,,0.00,Wunderground v.1.15,2013-09-14 18:25:00,
2013-09-14 11:30:00,73.0,59.2,29.83,East,84,1.0,3.0,62,0.00,,,0.00,Wunderground v.1.15,2013-09-14 18:30:00,
2013-09-14 11:40:00,72.4,58.2,29.83,West,279,2.0,2.0,61,0.00,,,0.00,Wunderground v.1.15,2013-09-14 18:40:00,
2013-09-14 11:45:00,72.5,59.2,29.83,West,264,2.0,7.0,63,0.00,,,0.00,Wunderground v.1.15,2013-09-14 18:45:00,
2013-09-14 11:55:00,73.0,58.8,29.83,NNW,328,2.0,3.0,61,0.00,,,0.00,Wunderground v.1.15,2013-09-14 18:55:00,
2013-09-14 12:00:00,73.1,59.3,29.83,NE,42,1.0,1.0,62,0.00,,,0.00,Wunderground v.1.15,2013-09-14 19:00:00,
2013-09-14 12:10:00,73.3,59.0,29.82,NNE,15,2.0,2.0,61,0.00,,,0.00,Wunderground v.1.15,2013-09-14 19:10:00,
2013-09-14 12:15:00,73.0,58.8,29.82,NNW,334,2.0,5.0,61,0.00,,,0.00,Wunderground v.1.15,2013-09-14 19:15:00,
2013-09-14 12:25:00,72.2,58.5,29.82,ENE,71,1.0,2.0,62,0.00,,,0.00,Wunderground v.1.15,2013-09-14 19:25:00,
2013-09-14 12:35:00,72.2,58.5,29.82,NNW,336,2.0,5.0,62,0.00,,,0.00,Wunderground v.1.15,2013-09-14 19:35:00,
2013-09-14 12:40:00,72.4,58.6,29.82,NE,52,2.0,2.0,62,0.00,,,0.00,Wunderground v.1.15,2013-09-14 19:40:00,
2013-09-14 12:50:00,72.1,59.2,29.81,West,281,3.0,8.0,64,0.00,,,0.00,Wunderground v.1.15,2013-09-14 19:50:00,
2013-09-14 12:55:00,72.2,58.5,29.81,North,9,2.0,8.0,62,0.00,,,0.00,Wunderground v.1.15,2013-09-14 19:55:00,
2013-09-14 13:00:00,72.4,58.6,29.81,NNW,337,2.0,2.0,62,0.00,,,0.00,Wunderground v.1.15,2013-09-14 20:00:00,
2013-09-14 13:10:00,73.2,58.9,29.81,West,273,1.0,1.0,61,0.00,,,0.00,Wunderground v.1.15,2013-09-14 20:10:00,
2013-09-14 13:20:00,72.7,58.5,29.81,WSW,257,3.0,3.0,61,0.00,,,0.00,Wunderground v.1.15,2013-09-14 20:20:00,
2013-09-14 13:25:00,72.9,58.7,29.81,WNW,293,2.0,3.0,61,0.00,,,0.00,Wunderground v.1.15,2013-09-14 20:25:00,
2013-09-14 13:35:00,73.6,58.9,29.80,North,5,2.0,3.0,60,0.00,,,0.00,Wunderground v.1.15,2013-09-14 20:35:00,
2013-09-14 13:45:00,73.2,58.5,29.80,West,277,2.0,4.0,60,0.00,,,0.00,Wunderground v.1.15,2013-09-14 20:45:00,
2013-09-14 13:55:00,73.2,58.5,29.80,NNW,329,3.0,6.0,60,0.00,,,0.00,Wunderground v.1.15,2013-09-14 20:55:00,
2013-09-14 14:00:00,73.0,58.8,29.80,NW,311,3.0,3.0,61,0.00,,,0.00,Wunderground v.1.15,2013-09-14 21:00:00,
2013-09-14 14:10:00,73.8,59.0,29.79,WNW,298,1.0,2.0,60,0.00,,,0.00,Wunderground v.1.15,2013-09-14 21:10:00,
2013-09-14 14:20:00,73.7,58.5,29.79,NNW,348,2.0,2.0,59,0.00,,,0.00,Wunderground v.1.15,2013-09-14 21:20:00,
2013-09-14 14:30:00,74.0,58.8,29.79,WNW,291,2.0,2.0,59,0.00,,,0.00,Wunderground v.1.15,2013-09-14 21:30:00,
2013-09-14 14:40:00,75.2,58.9,29.78,NNE,25,2.0,2.0,57,0.00,,,0.00,Wunderground v.1.15,2013-09-14 21:40:00,
2013-09-14 14:50:00,75.3,58.5,29.78,NNW,338,2.0,5.0,56,0.00,,,0.00,Wunderground v.1.15,2013-09-14 21:50:00,
2013-09-14 14:55:00,75.2,58.9,29.78,SE,132,3.0,5.0,57,0.00,,,0.00,Wunderground v.1.15,2013-09-14 21:55:00,
2013-09-14 15:00:00,75.7,58.9,29.78,West,274,1.0,2.0,56,0.00,,,0.00,Wunderground v.1.15,2013-09-14 22:00:00,
2013-09-14 15:10:00,75.6,58.3,29.78,WNW,298,2.0,8.0,55,0.00,,,0.00,Wunderground v.1.15,2013-09-14 22:10:00,
2013-09-14 15:20:00,75.5,58.2,29.77,NNW,344,2.0,4.0,55,0.00,,,0.00,Wunderground v.1.15,2013-09-14 22:20:00,
2013-09-14 15:30:00,75.4,58.1,29.77,WNW,298,2.0,2.0,55,0.00,,,0.00,Wunderground v.1.15,2013-09-14 22:30:00,
2013-09-14 15:40:00,74.8,58.1,29.77,NW,309,3.0,3.0,56,0.00,,,0.00,Wunderground v.1.15,2013-09-14 22:40:00,
2013-09-14 15:50:00,74.4,58.2,29.77,NW,326,2.0,2.0,57,0.00,,,0.00,Wunderground v.1.15,2013-09-14 22:50:00,
2013-09-14 16:00:00,74.2,57.5,29.76,NW,308,2.0,3.0,56,0.00,,,0.00,Wunderground v.1.15,2013-09-14 23:00:00,
2013-09-14 16:10:00,74.4,57.2,29.76,West,279,2.0,2.0,55,0.00,,,0.00,Wunderground v.1.15,2013-09-14 23:10:00,
2013-09-14 16:20:00,74.7,57.5,29.76,WNW,289,2.0,2.0,55,0.00,,,0.00,Wunderground v.1.15,2013-09-14 23:20:00,
2013-09-14 16:30:00,74.6,57.4,29.76,NNW,346,2.0,2.0,55,0.00,,,0.00,Wunderground v.1.15,2013-09-14 23:30:00,
2013-09-14 16:35:00,74.3,57.6,29.76,NW,322,2.0,2.0,56,0.00,,,0.00,Wunderground v.1.15,2013-09-14 23:35:00,
2013-09-14 16:40:00,74.2,57.0,29.76,NNW,339,2.0,4.0,55,0.00,,,0.00,Wunderground v.1.15,2013-09-14 23:40:00,
2013-09-14 16:50:00,73.1,56.5,29.76,West,275,2.0,3.0,56,0.00,,,0.00,Wunderground v.1.15,2013-09-14 23:50:00,
2013-09-14 16:55:00,72.5,55.9,29.75,North,5,3.0,3.0,56,0.00,,,0.00,Wunderground v.1.15,2013-09-14 23:55:00,
2013-09-14 17:00:00,72.3,55.7,29.75,North,355,2.0,2.0,56,0.00,,,0.00,Wunderground v.1.15,2013-09-15 00:00:00,
2013-09-14 17:05:00,72.2,56.1,29.75,ENE,63,1.0,2.0,57,0.00,,,0.00,Wunderground v.1.15,2013-09-15 00:05:00,
2013-09-14 17:10:00,71.9,55.8,29.75,ENE,58,2.0,3.0,57,0.00,,,0.00,Wunderground v.1.15,2013-09-15 00:10:00,
2013-09-14 17:20:00,71.8,55.7,29.76,NNE,19,1.0,1.0,57,0.00,,,0.00,Wunderground v.1.15,2013-09-15 00:20:00,
2013-09-14 17:25:00,71.8,55.7,29.75,NNW,344,1.0,1.0,57,0.00,,,0.00,Wunderground v.1.15,2013-09-15 00:25:00,
2013-09-14 17:35:00,72.4,55.8,29.75,ENE,68,0.0,1.0,56,0.00,,,0.00,Wunderground v.1.15,2013-09-15 00:35:00,
2013-09-14 17:45:00,72.2,55.6,29.75,NW,308,0.0,0.0,56,0.00,,,0.00,Wunderground v.1.15,2013-09-15 00:45:00,
2013-09-14 17:50:00,72.0,55.4,29.75,NW,306,0.0,0.0,56,0.00,,,0.00,Wunderground v.1.15,2013-09-15 00:50:00,
2013-09-14 18:00:00,71.5,55.5,29.75,NNW,329,0.0,3.0,57,0.00,,,0.00,Wunderground v.1.15,2013-09-15 01:00:00,
2013-09-14 18:05:00,71.2,54.7,29.75,North,350,0.0,3.0,56,0.00,,,0.00,Wunderground v.1.15,2013-09-15 01:05:00,
2013-09-14 18:15:00,70.6,54.6,29.75,North,5,1.0,1.0,57,0.00,,,0.00,Wunderground v.1.15,2013-09-15 01:15:00,
2013-09-14 18:25:00,70.0,54.5,29.76,NNW,347,0.0,1.0,58,0.00,,,0.00,Wunderground v.1.15,2013-09-15 01:25:00,
2013-09-14 18:35:00,69.5,54.5,29.76,NNW,338,0.0,0.0,59,0.00,,,0.00,Wunderground v.1.15,2013-09-15 01:35:00,
2013-09-14 18:40:00,69.3,55.3,29.76,NNW,338,0.0,0.0,61,0.00,,,0.00,Wunderground v.1.15,2013-09-15 01:40:00,
2013-09-14 18:45:00,69.0,55.4,29.76,NNW,338,0.0,0.0,62,0.00,,,0.00,Wunderground v.1.15,2013-09-15 01:45:00,
2013-09-14 18:55:00,68.3,55.2,29.76,NNW,342,0.0,0.0,63,0.00,,,0.00,Wunderground v.1.15,2013-09-15 01:55:00,
2013-09-14 19:00:00,67.9,55.3,29.76,NNW,339,0.0,0.0,64,0.00,,,0.00,Wunderground v.1.15,2013-09-15 02:00:00,
2013-09-14 19:10:00,67.2,54.6,29.76,NNW,332,0.0,0.0,64,0.00,,,0.00,Wunderground v.1.15,2013-09-15 02:10:00,
2013-09-14 19:15:00,66.8,55.1,29.76,NNW,334,0.0,0.0,66,0.00,,,0.00,Wunderground v.1.15,2013-09-15 02:15:00,
2013-09-14 19:25:00,65.8,54.5,29.76,NW,319,0.0,0.0,67,0.00,,,0.00,Wunderground v.1.15,2013-09-15 02:25:00,
2013-09-14 19:35:00,65.0,54.6,29.77,NW,319,0.0,0.0,69,0.00,,,0.00,Wunderground v.1.15,2013-09-15 02:35:00,
2013-09-14 19:40:00,64.6,54.2,29.77,NW,319,0.0,0.0,69,0.00,,,0.00,Wunderground v.1.15,2013-09-15 02:40:00,
2013-09-14 19:50:00,63.7,54.5,29.77,NW,319,0.0,0.0,72,0.00,,,0.00,Wunderground v.1.15,2013-09-15 02:50:00,
2013-09-14 19:55:00,63.3,54.1,29.77,NW,319,0.0,0.0,72,0.00,,,0.00,Wunderground v.1.15,2013-09-15 02:55:00,
2013-09-14 20:00:00,62.9,54.1,29.77,NW,319,0.0,0.0,73,0.00,,,0.00,Wunderground v.1.15,2013-09-15 03:00:00,
2013-09-14 20:05:00,62.5,54.1,29.77,NW,319,0.0,0.0,74,0.00,,,0.00,Wunderground v.1.15,2013-09-15 03:05:00,
2013-09-14 20:15:00,61.7,54.1,29.78,NW,319,0.0,0.0,76,0.00,,,0.00,Wunderground v.1.15,2013-09-15 03:15:00,
2013-09-14 20:20:00,61.3,53.7,29.78,NW,319,0.0,0.0,76,0.00,,,0.00,Wunderground v.1.15,2013-09-15 03:20:00,
2013-09-14 20:30:00,60.7,53.8,29.78,NW,319,0.0,0.0,78,0.00,,,0.00,Wunderground v.1.15,2013-09-15 03:30:00,
2013-09-14 20:35:00,60.5,53.6,29.78,NW,319,0.0,0.0,78,0.00,,,0.00,Wunderground v.1.15,2013-09-15 03:35:00,
2013-09-14 20:45:00,60.1,53.6,29.79,NW,319,0.0,0.0,79,0.00,,,0.00,Wunderground v.1.15,2013-09-15 03:45:00,
2013-09-14 20:55:00,59.6,53.4,29.78,NW,319,0.0,0.0,80,0.00,,,0.00,Wunderground v.1.15,2013-09-15 03:55:00,
2013-09-14 21:00:00,59.4,53.2,29.79,NW,319,0.0,0.0,80,0.00,,,0.00,Wunderground v.1.15,2013-09-15 04:00:00,
2013-09-14 21:05:00,59.3,53.5,29.79,NW,319,0.0,0.0,81,0.00,,,0.00,Wunderground v.1.15,2013-09-15 04:05:00,
2013-09-14 21:10:00,59.1,53.3,29.79,NW,319,0.0,0.0,81,0.00,,,0.00,Wunderground v.1.15,2013-09-15 04:10:00,
2013-09-14 21:20:00,58.7,53.2,29.79,NW,319,0.0,0.0,82,0.00,,,0.00,Wunderground v.1.15,2013-09-15 04:20:00,
2013-09-14 21:25:00,58.5,53.0,29.79,NW,319,0.0,0.0,82,0.00,,,0.00,Wunderground v.1.15,2013-09-15 04:25:00,
2013-09-14 21:35:00,58.1,53.0,29.79,NW,319,0.0,0.0,83,0.00,,,0.00,Wunderground v.1.15,2013-09-15 04:35:00,
2013-09-14 21:40:00,57.9,52.4,29.79,NW,319,0.0,0.0,82,0.00,,,0.00,Wunderground v.1.15,2013-09-15 04:40:00,
2013-09-14 21:50:00,57.4,52.6,29.79,NW,319,0.0,0.0,84,0.00,,,0.00,Wunderground v.1.15,2013-09-15 04:50:00,
2013-09-14 22:00:00,56.9,52.4,29.79,NW,319,0.0,0.0,85,0.00,,,0.00,Wunderground v.1.15,2013-09-15 05:00:00,
2013-09-14 22:10:00,56.4,51.9,29.80,NW,319,0.0,0.0,85,0.00,,,0.00,Wunderground v.1.15,2013-09-15 05:10:00,
2013-09-14 22:15:00,56.3,52.2,29.80,NW,319,0.0,0.0,86,0.00,,,0.00,Wunderground v.1.15,2013-09-15 05:15:00,
2013-09-14 22:25:00,55.9,51.8,29.80,NW,319,0.0,0.0,86,0.00,,,0.00,Wunderground v.1.15,2013-09-15 05:25:00,
2013-09-14 22:35:00,55.5,51.4,29.80,NW,319,0.0,0.0,86,0.00,,,0.00,Wunderground v.1.15,2013-09-15 05:35:00,
2013-09-14 22:40:00,55.3,51.5,29.80,NW,319,0.0,0.0,87,0.00,,,0.00,Wunderground v.1.15,2013-09-15 05:40:00,
2013-09-14 22:50:00,55.0,51.2,29.80,NW,319,0.0,0.0,87,0.00,,,0.00,Wunderground v.1.15,2013-09-15 05:50:00,
2013-09-14 22:55:00,55.0,51.2,29.80,NW,319,0.0,0.0,87,0.00,,,0.00,Wunderground v.1.15,2013-09-15 05:55:00,
2013-09-14 23:00:00,54.8,51.0,29.80,NW,319,0.0,0.0,87,0.00,,,0.00,Wunderground v.1.15,2013-09-15 06:00:00,
2013-09-14 23:05:00,54.8,51.3,29.80,NW,319,0.0,0.0,88,0.00,,,0.00,Wunderground v.1.15,2013-09-15 06:05:00,
2013-09-14 23:10:00,54.8,51.3,29.81,NW,319,0.0,0.0,88,0.00,,,0.00,Wunderground v.1.15,2013-09-15 06:10:00,
2013-09-14 23:20:00,54.5,51.0,29.81,NW,319,0.0,0.0,88,0.00,,,0.00,Wunderground v.1.15,2013-09-15 06:20:00,
2013-09-14 23:30:00,54.2,50.7,29.81,NW,319,0.0,0.0,88,0.00,,,0.00,Wunderground v.1.15,2013-09-15 06:30:00,
2013-09-14 23:35:00,54.0,50.2,29.81,NW,319,0.0,0.0,87,0.00,,,0.00,Wunderground v.1.15,2013-09-15 06:35:00,
2013-09-14 23:45:00,53.6,50.1,29.81,NW,319,0.0,0.0,88,0.00,,,0.00,Wunderground v.1.15,2013-09-15 06:45:00,
2013-09-14 23:55:00,53.4,49.9,29.81,NW,319,0.0,0.0,88,0.00,,,0.00,Wunderground v.1.15,2013-09-15 06:55:00,